[[{"header":{"parameterUnit":"m.s-1","parameterCategory":1,"la1":30.2991,"la2":30.254,"lo1":-89.0895,"lo2":-89.0444,"dy":0.0017,"dx":0.0017,"nx":28,"ny":28,"refTime":"2024-06-25T21:00:00:Z","depth":0,"parameterNumber":2,"parameterNumberName":"U-component_of_WINDS"},"data":[0,0,0,0,0,0,0,0,0,0,0,0,0,0,0,0,0,0,0,0,0,0,0,0,0,0,0,0,0,0,0,0,0,0,0,0,0,0,0,0,0,0,0,0,0,0,0,0,0,0,0,0,0,0,0,0,0,0,2.4654,2.4657,0,2.4866,2.4868,2.487,2.4911,2.491,2.4908,2.4907,2.5124,2.5131,2.5139,0,0,0,0,0,0,0,0,0,0,0,0,0,2.4289,2.4295,2.4654,2.4657,2.466,2.4865,2.4868,2.4871,2.4912,2.491,2.4908,2.4906,2.5122,2.513,2.5139,0,0,0,0,0,0,0,0,0,0,0,0,0,2.4468,2.4297,2.4654,2.4705,2.4711,2.4865,2.4868,2.4872,2.4912,2.491,2.4907,2.4905,2.5119,2.513,2.5141,2.5258,0,0,2.5174,2.5179,0,0,0,0,0,0,0,0,2.4458,2.4482,2.4695,2.4701,2.4709,2.486,2.4819,2.5001,2.4913,2.4836,2.4907,2.4904,2.5038,2.5056,2.5101,2.5269,2.5278,2.5175,2.5182,2.5187,2.519,0,0,0,0,0,0,0,2.4446,2.4473,2.4738,2.4698,2.4707,2.4718,2.474,2.4854,2.4949,2.4842,2.4846,2.487,2.5042,2.509,2.5106,2.5281,2.5175,2.5185,2.5191,2.5196,2.5558,2.5561,0,0,0,0,0,0,2.4424,2.4462,2.4731,2.4744,2.4575,2.4726,2.4752,2.4814,2.4947,2.4965,2.4872,2.4871,2.5073,2.5093,2.5114,2.5263,2.5186,2.5197,2.5203,2.5555,2.5559,2.5562,0,0,0,0,0,0,2.4416,2.4447,2.4723,2.4604,2.464,2.4735,2.4805,2.4819,2.4868,2.497,2.4987,2.4904,2.5071,2.5099,2.5223,2.5271,2.5202,2.5212,2.5552,2.5556,2.5561,2.5559,0,0,0,0,0,0,2.4405,2.4444,2.4489,2.4605,2.4646,2.4827,2.4808,2.4825,2.4886,2.4887,2.5004,2.5021,2.5072,2.5206,2.5234,2.5285,2.522,2.5548,2.5554,2.5559,2.5555,2.5563,2.557,0,0,0,0,0,2.4392,2.4481,2.4492,2.4524,2.4705,2.483,2.4853,2.4909,2.489,2.4937,2.5003,2.5018,2.526,2.5218,2.525,2.5305,2.5545,2.5552,2.5559,2.5552,2.5562,2.5569,0,0,0,0,0,0,2.4369,2.4497,2.451,2.4639,2.4723,2.4836,2.4897,2.4917,2.5008,2.5006,2.5071,2.5097,2.5218,2.5273,2.5224,2.5427,2.5402,2.5415,2.5386,2.5396,2.5403,2.5387,2.523,0,0,0,0,0,2.4378,2.4468,2.4576,2.4679,2.472,2.4801,2.4858,2.4893,2.4983,2.5019,2.5094,2.5181,2.5278,2.534,2.5434,2.5563,2.559,2.5617,2.5624,2.5629,2.564,2.5715,2.5728,2.5585,2.5584,2.5584,0,0,2.44,2.4481,2.4534,2.4676,2.4746,2.4839,2.4831,2.4929,2.4999,2.5034,2.5156,2.5214,2.5316,2.5444,2.5504,2.5494,2.5686,2.5638,2.5641,2.565,2.5723,2.5737,2.5749,2.5589,2.5588,2.5588,0,0,2.4486,2.4556,2.465,2.472,2.4825,2.4879,2.4901,2.5012,2.5052,2.5175,2.5204,2.5288,2.5452,2.5524,2.5582,2.5696,2.5714,2.5725,2.5763,2.5835,2.5846,2.5856,2.5899,2.5913,2.5736,2.5736,2.5736,0,2.45,2.464,2.4696,2.4794,2.4856,2.4892,2.4989,2.5054,2.5184,2.5227,2.5214,2.5422,2.5493,2.5638,2.5666,2.5712,2.5741,2.5712,2.584,2.5851,2.5861,2.5903,2.5918,2.5736,2.5736,2.5736,2.5736,0,2.4652,2.4749,2.4813,2.4938,2.5008,2.5104,2.5176,2.524,2.5269,2.5324,2.545,2.5536,2.5649,2.5686,2.5716,2.5837,2.5828,2.5826,2.5803,2.5875,2.5915,2.5931,2.5737,2.5737,2.5737,2.5737,0,0,2.4731,2.4886,2.4909,2.4966,2.5085,2.5162,2.526,2.537,2.5424,2.5513,2.5599,2.5737,2.5737,2.5802,2.584,2.5903,2.5991,2.5895,2.5898,2.5911,2.6131,2.6133,2.615,2.6002,2.6006,2.6008,2.6123,0,2.4833,2.501,2.5063,2.5212,2.5303,2.5338,2.5425,2.5507,2.5561,2.5647,2.5707,2.5805,2.5796,2.5836,2.59,2.5966,2.6036,2.5958,2.6084,2.6088,2.6059,2.6171,2.6173,2.6277,2.6139,2.6142,2.6144,0,2.4976,2.5067,2.5225,2.5333,2.5373,2.5449,2.5555,2.5636,2.5731,2.5766,2.584,2.5873,2.5979,2.5948,2.6095,2.6041,2.6096,2.6136,2.6142,2.6157,2.6121,2.619,2.6311,2.6328,2.6169,2.6167,2.6165,0,2.502,2.5182,2.5298,2.5346,2.5474,2.5527,2.5583,2.5676,2.5739,2.5831,2.5873,2.5977,2.6034,2.6114,2.6175,2.6147,2.6318,2.6291,2.6351,2.635,2.6387,2.6384,2.652,2.6419,2.6418,2.6418,2.6418,0,2.5129,2.5225,2.5319,2.539,2.5498,2.5559,2.5665,2.5723,2.5805,2.5889,2.5926,2.6004,2.6079,2.6167,2.6215,2.6331,2.6356,2.6388,2.64,2.6386,2.6382,2.6424,2.6419,2.6422,2.6421,2.6421,2.642,0,2.5197,2.5264,2.5392,2.5503,2.5534,2.5609,2.5704,2.5776,2.5831,2.5937,2.5965,2.6052,2.6158,2.6226,2.6361,2.6394,2.6521,2.653,2.6489,2.6495,2.6551,2.6546,2.672,2.6747,2.6626,2.6627,2.6628,0,2.5263,2.5338,2.5457,2.5515,2.5572,2.5665,2.573,2.5793,2.5859,2.5973,2.6031,2.6139,2.6229,2.6397,2.6474,2.6578,2.659,2.6644,2.6606,2.659,2.6594,2.6589,2.6598,2.6651,2.6652,2.6653,2.6653,0,2.5375,2.5404,2.5495,2.5599,2.5675,2.5759,2.5844,2.589,2.5967,2.604,2.6149,2.6218,2.6357,2.6464,2.6575,2.6634,2.6658,2.6664,2.6684,2.6671,2.6645,2.6662,2.6508,2.6661,2.666,2.6659,2.6659,2.6659,2.5445,2.5513,2.5608,2.5709,2.5779,2.5857,2.593,2.5994,2.6085,2.6203,2.6234,2.6348,2.6443,2.6594,2.6655,2.6746,2.6739,2.6767,2.6775,2.6781,2.6783,2.6629,2.6766,2.6766,2.6766,2.6766,2.6766,0,2.556,2.5623,2.5715,2.5832,2.5911,2.5925,2.6019,2.6085,2.6185,2.6271,2.6358,2.6484,2.6589,2.6673,2.6782,2.6838,2.6852,2.6865,2.6862,2.6876,2.6782,2.6755,2.6852,2.6852,2.6852,2.6852,2.6852,2.6852,2.5629,2.5746,2.5786,2.5938,2.6001,2.6112,2.6165,2.6238,2.6307,2.6445,2.6532,2.6586,2.6672,2.6787,2.6884,2.6906,2.6945,2.6956,2.6981,2.6892,2.6882,2.6873,2.6848,2.6964,2.6964,2.7068,2.7069,2.707]},{"header":{"parameterUnit":"m.s-1","parameterCategory":1,"la1":30.2991,"la2":30.254,"lo1":-89.0895,"lo2":-89.0444,"dy":0.0017,"dx":0.0017,"nx":28,"ny":28,"refTime":"2024-06-25T21:00:00:Z","depth":0,"parameterNumber":3,"parameterNumberName":"V-component_of_WINDS"},"data":[0,0,0,0,0,0,0,0,0,0,0,0,0,0,0,0,0,0,0,0,0,0,0,0,0,0,0,0,0,0,0,0,0,0,0,0,0,0,0,0,0,0,0,0,0,0,0,0,0,0,0,0,0,0,0,0,0,0,2.2029,2.2031,0,2.2237,2.224,2.2242,2.2273,2.2272,2.227,2.2268,2.2485,2.2492,2.25,0,0,0,0,0,0,0,0,0,0,0,0,0,2.1663,2.167,2.2029,2.2031,2.2034,2.2237,2.224,2.2243,2.2274,2.2272,2.2269,2.2267,2.2482,2.2491,2.25,0,0,0,0,0,0,0,0,0,0,0,0,0,2.1842,2.1672,2.2028,2.2074,2.208,2.2236,2.224,2.2243,2.2274,2.2271,2.2269,2.2266,2.2479,2.249,2.2502,2.2628,0,0,2.2536,2.2541,0,0,0,0,0,0,0,0,2.1832,2.1855,2.2065,2.2071,2.2078,2.2226,2.219,2.2372,2.2275,2.2201,2.2268,2.2265,2.2401,2.2419,2.2464,2.2638,2.2647,2.2537,2.2544,2.2549,2.2552,0,0,0,0,0,0,0,2.1819,2.1847,2.2111,2.2068,2.2076,2.2086,2.2108,2.2225,2.2315,2.2207,2.221,2.2234,2.2405,2.2453,2.247,2.2651,2.2537,2.2547,2.2554,2.2558,2.2942,2.2945,0,0,0,0,0,0,2.1798,2.1836,2.2105,2.2118,2.1945,2.2095,2.2119,2.2182,2.2313,2.2331,2.2236,2.2234,2.2435,2.2456,2.2477,2.2636,2.2549,2.2559,2.2566,2.2938,2.2942,2.2946,0,0,0,0,0,0,2.179,2.1822,2.2096,2.1978,2.2013,2.2104,2.2174,2.2187,2.2236,2.2335,2.2352,2.2269,2.2434,2.2461,2.2591,2.2644,2.2564,2.2575,2.2934,2.294,2.2944,2.2953,0,0,0,0,0,0,2.1779,2.1819,2.1866,2.1978,2.202,2.2205,2.2177,2.2194,2.2255,2.2255,2.2371,2.2387,2.2434,2.2574,2.2602,2.2658,2.2583,2.293,2.2937,2.2943,2.2949,2.2958,2.2966,0,0,0,0,0,2.1766,2.1861,2.1868,2.1901,2.2081,2.2208,2.2231,2.2282,2.2259,2.2309,2.2373,2.2383,2.2633,2.2587,2.2619,2.2679,2.2927,2.2935,2.2942,2.2945,2.2956,2.2966,0,0,0,0,0,0,2.1753,2.1876,2.1886,2.2019,2.2103,2.2213,2.2277,2.2293,2.2385,2.2381,2.2442,2.2468,2.2595,2.265,2.2595,2.281,2.2778,2.2793,2.2769,2.2781,2.279,2.2775,2.2593,0,0,0,0,0,2.1766,2.1857,2.196,2.2068,2.2109,2.2186,2.2243,2.2275,2.2364,2.24,2.2473,2.2561,2.266,2.2723,2.2819,2.2956,2.2984,2.3014,2.3023,2.3029,2.3042,2.3122,2.3137,2.2971,2.2971,2.2971,0,0,2.1793,2.1871,2.1925,2.2067,2.2136,2.2231,2.2215,2.2316,2.2388,2.2416,2.2543,2.2599,2.2701,2.2836,2.2899,2.2886,2.3094,2.3039,2.3044,2.3053,2.3131,2.3147,2.3161,2.2977,2.2976,2.2975,0,0,2.1891,2.1958,2.2057,2.2126,2.2229,2.228,2.2303,2.2412,2.2451,2.2578,2.2602,2.2689,2.2857,2.2929,2.2988,2.3116,2.313,2.3145,2.3192,2.3268,2.3282,2.3294,2.3342,2.3358,2.3157,2.3157,2.3157,0,2.1912,2.2055,2.2106,2.2206,2.2269,2.2298,2.24,2.2464,2.2594,2.2638,2.2621,2.2834,2.2904,2.3057,2.3089,2.3134,2.3165,2.3133,2.3275,2.3288,2.33,2.3346,2.3364,2.3158,2.3158,2.3158,2.3158,0,2.2077,2.2176,2.2243,2.2368,2.2438,2.2538,2.2606,2.2672,2.2698,2.2751,2.2883,2.2968,2.3083,2.3121,2.3148,2.328,2.3269,2.3263,2.3233,2.3316,2.3361,2.3379,2.316,2.316,2.3159,2.3159,0,0,2.2173,2.2325,2.2349,2.2407,2.2524,2.2603,2.2705,2.2817,2.2873,2.2962,2.3052,2.3194,2.319,2.3256,2.3291,2.3359,2.3458,2.3345,2.3349,2.3365,2.3611,2.3616,2.3636,2.3467,2.347,2.3473,2.3603,0,2.2287,2.247,2.2519,2.2675,2.2769,2.2798,2.2888,2.2971,2.3024,2.3112,2.3171,2.3272,2.3257,2.3298,2.3366,2.3431,2.3508,2.3422,2.3553,2.3557,2.3529,2.3659,2.3665,2.3783,2.3621,2.3624,2.3626,0,2.2444,2.2536,2.2701,2.2808,2.2849,2.2929,2.3037,2.312,2.3216,2.3249,2.3324,2.3354,2.3465,2.3427,2.3582,2.3523,2.3579,2.362,2.3626,2.3642,2.3598,2.3681,2.3822,2.384,2.3654,2.3652,2.365,0,2.2501,2.2666,2.2787,2.2835,2.2962,2.3018,2.3074,2.3166,2.3231,2.3325,2.3369,2.3475,2.3534,2.3616,2.3674,2.3641,2.3826,2.3792,2.3859,2.3858,2.3898,2.3895,2.4052,2.393,2.393,2.393,2.3929,0,2.2624,2.2724,2.2814,2.2888,2.3003,2.3059,2.3172,2.3229,2.3311,2.3399,2.3431,2.3513,2.3584,2.3676,2.3722,2.3845,2.3871,2.3903,2.3915,2.3902,2.3898,2.3941,2.3936,2.3934,2.3933,2.3932,2.3932,0,2.2707,2.277,2.2905,2.3014,2.3044,2.3124,2.3219,2.3294,2.3347,2.3458,2.3488,2.3573,2.3683,2.3749,2.3889,2.392,2.4057,2.4064,2.4025,2.403,2.4094,2.4088,2.4287,2.4317,2.4172,2.4174,2.4175,0,2.2782,2.286,2.2978,2.3039,2.3095,2.3192,2.3259,2.3318,2.3386,2.3502,2.3564,2.3676,2.3769,2.3945,2.402,2.4128,2.4139,2.4201,2.4156,2.4141,2.4144,2.4139,2.4149,2.421,2.4211,2.4212,2.4213,0,2.291,2.2938,2.3031,2.3137,2.3215,2.3302,2.3388,2.3436,2.351,2.3586,2.3699,2.3771,2.3914,2.4026,2.4141,2.42,2.4221,2.4226,2.4248,2.4237,2.4212,2.4229,2.4048,2.4222,2.4221,2.422,2.422,2.4219,2.2993,2.3065,2.316,2.3264,2.3335,2.3415,2.3491,2.3555,2.365,2.377,2.38,2.3919,2.4015,2.4171,2.4233,2.4329,2.432,2.435,2.4358,2.4366,2.4369,2.4194,2.435,2.435,2.435,2.435,2.4349,0,2.3125,2.3187,2.3282,2.3402,2.3485,2.3494,2.3591,2.366,2.3764,2.3851,2.3943,2.4074,2.4184,2.4268,2.438,2.4441,2.4454,2.4469,2.4467,2.4481,2.437,2.4341,2.4458,2.4458,2.4458,2.4457,2.4457,2.4457,2.3203,2.3326,2.3365,2.3525,2.3587,2.3704,2.3759,2.3834,2.3904,2.4049,2.414,2.4193,2.4281,2.44,2.4502,2.4524,2.4566,2.458,2.4604,2.45,2.4488,2.4477,2.445,2.4588,2.4588,2.4708,2.4709,2.471]}]]